Stations météo

réclame
Mon MeteoGroup
Braemar, Grande-Bretagne (99089): Température de l'air & dewpoint: 30.03.2020 04:00:00 - 05.04.2020 04:00:00 (BST)Braemar, Grande-Bretagne (99089): Température de l'air -20cm & Température de l'air -100cm: 30.03.2020 04:00:00 - 05.04.2020 04:00:00 (BST)Braemar, Grande-Bretagne (99089): Quantités de précipitations: 30.03.2020 04:00:00 - 05.04.2020 04:00:00 (BST)
Date & Time tt [°C] td [°C] tt -20cm [°C] tt -100cm [°C] rr [mm]
05.04.2020 04:00:00 8,0 2,4 - - 0,0
05.04.2020 03:00:00 7,5 2,4 - - 0,0
05.04.2020 02:00:00 7,8 3,3 - - 0,0
05.04.2020 01:00:00 7,6 3,2 - - 0,0
05.04.2020 00:00:00 7,2 3,1 - - 0,0
04.04.2020 23:00:00 6,8 2,3 - - 0,0
04.04.2020 22:00:00 6,9 1,8 - - 0,0
04.04.2020 21:00:00 6,6 2,4 - - 0,0
04.04.2020 20:00:00 7,0 2,0 - - 0,0
04.04.2020 19:00:00 7,4 1,7 - - 0,0
04.04.2020 18:00:00 7,6 0,9 - - 0,0
04.04.2020 17:00:00 7,6 1,4 - - 0,0
04.04.2020 16:00:00 7,6 1,6 - - 0,0
04.04.2020 15:00:00 7,3 1,7 - - 0,0
04.04.2020 14:00:00 7,7 1,0 - - 0,0
04.04.2020 13:00:00 7,9 0,8 - - 0,0
04.04.2020 12:00:00 6,8 1,5 - - 0,0
04.04.2020 11:00:00 6,5 2,1 - - 0,0
04.04.2020 10:00:00 5,9 1,8 4,2 5,0 0,0
04.04.2020 09:00:00 5,4 2,2 - - 0,0
04.04.2020 08:00:00 4,6 1,6 - - 0,0
04.04.2020 07:00:00 4,1 1,5 - - 0,0
04.04.2020 06:00:00 3,8 1,8 - - 0,0
04.04.2020 05:00:00 3,6 1,7 - - 0,0
04.04.2020 04:00:00 3,1 1,2 - - 0,0
04.04.2020 03:00:00 3,5 1,6 - - 0,0
04.04.2020 02:00:00 3,3 1,7 - - 0,0
04.04.2020 01:00:00 2,7 1,6 - - 0,0
04.04.2020 00:00:00 3,1 1,1 - - 0,0
03.04.2020 23:00:00 3,1 1,3 - - 0,2
03.04.2020 22:00:00 3,0 1,6 - - 0,0
03.04.2020 21:00:00 3,2 1,5 - - 0,0
03.04.2020 20:00:00 4,2 1,1 - - 0,0
03.04.2020 19:00:00 4,4 0,9 - - 0,0
03.04.2020 18:00:00 4,6 0,4 - - 0,0
03.04.2020 17:00:00 5,5 0,1 - - 0,0
03.04.2020 16:00:00 4,9 -0,4 - - 0,0
03.04.2020 15:00:00 4,7 -0,2 - - 0,0
03.04.2020 14:00:00 3,6 -0,9 - - 0,0
03.04.2020 13:00:00 4,3 -1,6 - - 0,0
03.04.2020 12:00:00 4,2 -2,2 - - 0,0
03.04.2020 11:00:00 3,6 -3,1 - - 0,0
03.04.2020 10:00:00 2,7 -1,7 4,0 5,0 0,0
03.04.2020 09:00:00 1,1 -1,6 - - 0,0
03.04.2020 08:00:00 0,2 -3,2 - - 0,0
03.04.2020 07:00:00 -1,5 -4,8 - - 0,0
03.04.2020 06:00:00 -1,6 -5,3 - - 0,0
03.04.2020 05:00:00 -2,0 -5,5 - - 0,0
03.04.2020 04:00:00 -1,1 -5,3 - - 0,0
03.04.2020 03:00:00 -0,6 -4,7 - - 0,0
03.04.2020 02:00:00 -1,2 -4,4 - - 0,0
03.04.2020 01:00:00 -0,7 -4,7 - - 0,0
03.04.2020 00:00:00 -1,6 -4,1 - - 0,0
02.04.2020 23:00:00 -1,9 -5,9 - - 0,0
02.04.2020 22:00:00 -0,8 -6,4 - - 0,0
02.04.2020 21:00:00 0,2 -5,2 - - 0,0
02.04.2020 20:00:00 0,8 -6,1 - - 0,0
02.04.2020 19:00:00 1,6 -4,5 - - 0,0
02.04.2020 18:00:00 2,5 -5,3 - - 0,0
02.04.2020 17:00:00 2,9 -4,4 - - 0,0
02.04.2020 16:00:00 3,8 -5,3 - - 0,0
02.04.2020 15:00:00 4,4 -4,2 - - 0,0
02.04.2020 14:00:00 3,3 -3,1 - - 0,2
02.04.2020 13:00:00 3,4 -2,4 - - 0,0
02.04.2020 12:00:00 3,7 -0,7 - - 0,0
02.04.2020 11:00:00 5,8 -2,9 - - 0,0
02.04.2020 10:00:00 5,6 -1,8 5,0 5,0 0,0
02.04.2020 09:00:00 5,7 0,6 - - 0,0
02.04.2020 08:00:00 5,7 1,7 - - 0,0
02.04.2020 07:00:00 5,6 1,4 - - 0,0
02.04.2020 06:00:00 6,6 2,1 - - 0,0
02.04.2020 05:00:00 5,9 1,3 - - 0,0
02.04.2020 04:00:00 4,7 -0,3 - - 0,0
02.04.2020 03:00:00 4,9 0,1 - - 0,0
02.04.2020 02:00:00 4,2 -0,3 - - 0,0
02.04.2020 01:00:00 4,3 -0,3 - - 0,0
02.04.2020 00:00:00 4,1 0,1 - - 0,0
01.04.2020 23:00:00 4,6 -0,4 - - 0,0
01.04.2020 22:00:00 5,5 0,1 - - 0,0
01.04.2020 21:00:00 6,5 -0,3 - - 0,0
01.04.2020 20:00:00 6,5 0,3 - - 0,0
01.04.2020 19:00:00 8,6 2,4 - - 0,0
01.04.2020 18:00:00 8,5 4,3 - - 0,0
01.04.2020 17:00:00 8,5 3,8 - - 0,0
01.04.2020 16:00:00 8,8 3,3 - - 0,0
01.04.2020 15:00:00 7,8 2,4 - - 0,0
01.04.2020 14:00:00 6,7 1,7 - - 0,0
01.04.2020 13:00:00 6,9 1,0 - - 0,0
01.04.2020 12:00:00 6,8 0,6 - - 0,0
01.04.2020 11:00:00 6,5 0,3 - - 0,0
01.04.2020 10:00:00 5,4 0,3 5,0 4,9 0,0
01.04.2020 09:00:00 4,3 1,0 - - 0,0
01.04.2020 08:00:00 3,4 0,1 - - 0,0
01.04.2020 07:00:00 3,4 -0,8 - - 0,0
01.04.2020 06:00:00 3,3 -0,9 - - 0,0
01.04.2020 05:00:00 3,7 -0,6 - - 0,0
01.04.2020 04:00:00 2,8 -0,2 - - 0,0
01.04.2020 03:00:00 3,3 -0,2 - - 0,0
01.04.2020 02:00:00 3,6 -0,4 - - 0,0
01.04.2020 01:00:00 2,9 -0,6 - - 0,0
01.04.2020 00:00:00 3,0 -0,4 - - 0,0
31.03.2020 23:00:00 4,2 0,0 - - 0,0
31.03.2020 22:00:00 5,0 0,1 - - 0,0
31.03.2020 21:00:00 5,4 0,6 - - 0,0
31.03.2020 20:00:00 5,4 1,1 - - 0,0
31.03.2020 19:00:00 6,5 1,0 - - 0,0
31.03.2020 18:00:00 7,1 0,5 - - 0,0
31.03.2020 17:00:00 7,5 -0,9 - - 0,0
31.03.2020 16:00:00 7,2 0,2 - - 0,0
31.03.2020 15:00:00 8,0 1,5 - - 0,0
31.03.2020 14:00:00 8,8 0,7 - - 0,0
31.03.2020 13:00:00 7,2 0,1 - - 0,0
31.03.2020 12:00:00 7,1 1,4 - - 0,0
31.03.2020 11:00:00 5,9 0,7 - - 0,0
31.03.2020 10:00:00 4,9 1,9 4,7 4,9 0,0
31.03.2020 09:00:00 2,1 1,8 - - 0,0
31.03.2020 08:00:00 0,7 0,5 - - 0,0
31.03.2020 07:00:00 -0,9 -1,1 - - 0,0
31.03.2020 06:00:00 -2,0 -2,3 - - 0,0
31.03.2020 05:00:00 -2,6 -3,1 - - 0,0
31.03.2020 04:00:00 -2,1 -2,8 - - 0,0
31.03.2020 03:00:00 -1,5 -2,2 - - 0,0
31.03.2020 02:00:00 -0,1 -1,3 - - 0,0
31.03.2020 01:00:00 1,8 0,5 - - 0,2
31.03.2020 00:00:00 3,3 1,5 - - 0,0
30.03.2020 23:00:00 3,3 2,6 - - 0,0
30.03.2020 22:00:00 4,1 2,3 - - 0,0
30.03.2020 21:00:00 3,7 2,8 - - 0,6
30.03.2020 20:00:00 4,6 2,1 - - 0,2
30.03.2020 19:00:00 5,0 1,9 - - 0,2
30.03.2020 18:00:00 5,9 1,9 - - 0,0
30.03.2020 17:00:00 6,2 2,2 - - 0,0
30.03.2020 16:00:00 6,7 1,7 - - 0,0
30.03.2020 15:00:00 6,7 2,2 - - 0,0
30.03.2020 14:00:00 6,4 2,1 - - 0,0
30.03.2020 13:00:00 6,4 2,0 - - 0,0
30.03.2020 12:00:00 5,7 2,6 - - 0,0
30.03.2020 11:00:00 5,9 2,3 - - 0,2
30.03.2020 10:00:00 5,4 2,5 4,5 4,9 0,2
30.03.2020 09:00:00 5,1 2,6 - - 0,0
30.03.2020 08:00:00 4,3 1,7 - - 0,4
30.03.2020 07:00:00 4,1 1,2 - - 0,0
30.03.2020 06:00:00 4,3 0,8 - - 0,0
30.03.2020 05:00:00 4,2 1,2 - - 0,2
30.03.2020 04:00:00 4,1 1,0 - - 0,0

tt = Température de l'air
td = dewpoint
tt -20cm = Température de l'air -20cm
tt -100cm = Température de l'air -100cm
rr = Quantités de précipitations

stations d'obs. à proximité